Regional Weather Roundup
Issued by NWS

Home | Current Version | Previous Version | Text Only | Print | Product List | Glossary On
Versions: 1 2 3 4 5 6 7 8 9 10 11 12 13 14 15 16 17 18 19 20 21 22 23 24 25 26 27 28 29 30 31 32 33 34 35 36 37 38 39 40 41 42 43 44 45 46 47 48 49 50
000
ASUS43 KLSX 290307
RWRMO

WEATHER SUMMARY FOR MISSOURI
NATIONAL WEATHER SERVICE SPRINGFIELD MO
900 PM CST WED JAN 28 2015

NOTE: "FAIR" INDICATES FEW OR NO CLOUDS BELOW 12,000 FEET WITH NO
       SIGNIFICANT WEATHER AND/OR OBSTRUCTIONS TO VISIBILITY.
       CURRENT SKY AND/OR WEATHER CONDITIONS ARE NOT AVAILABLE FOR
       CHILLICOTHE AND FARMINGTON.

MOZ001>031-035>038-043-044-053-054-290400-
...NORTHERN AND WESTERN MISSOURI...

CITY           SKY/WX    TMP DP  RH WIND       PRES   REMARKS
KANSAS CTY INT MOCLDY    56  37  49 SW7       29.76R
KANSAS C DTWN  PTCLDY    62  38  40 SW7       29.75R
LEE`S SUMMIT   PTCLDY    61  38  42 SW13      29.77R
ST JOSEPH      MOCLDY    51  36  56 SW9       29.74R
CHILLICOTHE      N/A     55  40  56 SW6       29.71R
KIRKSVILLE     CLEAR     52  38  58 S15       29.69F

$$
MOZ066>068-077>081-088>096-101>105-290400-
...SOUTHWEST MISSOURI...

CITY           SKY/WX    TMP DP  RH WIND       PRES   REMARKS
SPRINGFIELD    CLEAR     56  39  53 S14       29.86F
JOPLIN         CLEAR     63  41  44 S16       29.87R

$$
MOZ032>034-039>042-045>050-055>058-069>072-290400-
...CENTRAL MISSOURI...

CITY           SKY/WX    TMP DP  RH WIND       PRES   REMARKS
COLUMBIA       MOCLDY    51  36  56 S18       29.78F
JEFFERSON CITY MOCLDY    54  35  48 S10       29.81F
ROLLA          CLOUDY    47  34  60 S17G28    29.84F
SEDALIA        CLEAR     58  39  49 S15       29.78R
WHITEMAN AFB   PTCLDY    56  40  55 SW13      29.77R
WARRENSBURG    PTCLDY    59  39  47 SW13      29.77R
OSAGE BEACH    MOCLDY    54  36  50 S10G18    29.83S

$$
MOZ051-052-059>065-290400-
...EAST CENTRAL MISSOURI...

CITY           SKY/WX    TMP DP  RH WIND       PRES   REMARKS
ST LOUIS INTL  CLOUDY    47  33  58 S12G21    29.89F
SPIRIT OF STL  CLOUDY    47  33  58 S10G17    29.86F
ST CHARLES     CLOUDY    42  35  76 SE12      29.88F

$$
MOZ072>076-082>087-097>100-106>115-290400-
...SOUTH CENTRAL AND SOUTHEAST MISSOURI...

CITY           SKY/WX    TMP DP  RH WIND       PRES   REMARKS
CAPE GIRARDEAU MOCLDY    43  32  65 S7        30.03F
FARMINGTON     CLOUDY    45  34  65 S20G26    29.97F
POPLAR BLUFF   PTCLDY    43  33  68 S6        30.02F
WEST PLAINS    CLOUDY    47  35  63 S8        29.96F

$$


USA.gov is the U.S. government's official web portal to all federal, state and local government web resources and services.